ITY2133 LIML-LIRF

Flight info

Callsign ITY2133
Flight time 0h 51m
Altitude 33000
Route EKPAL DCT TINKU DCT XIBIL
Aircraft A320/M-SDE3FGHIRWY/LB1

Departure

Time 2026-05-01 11:56
Airport Milano Linate Airport (LIML)

Arrival

Time 2026-05-01 12:48
Airport Rome–Fiumicino Leonardo da Vinci International Airport (LIRF)
Time Latitude Longitude Altitude Speed Heading
2026-05-01 11:35 45.45972 9.27904 361 ft 0 kts
2026-05-01 11:45 45.45964 9.27904 362 ft 2 kts
2026-05-01 11:45 45.45947 9.27903 360 ft 2 kts
2026-05-01 11:46 45.45930 9.27902 360 ft 3 kts 19°
2026-05-01 11:46 45.45915 9.27889 360 ft 3 kts 56°
2026-05-01 11:46 45.45908 9.27868 363 ft 0 kts 90°
2026-05-01 11:49 45.45908 9.27882 360 ft 7 kts 90°
2026-05-01 11:49 45.45901 9.27958 361 ft 7 kts 117°
2026-05-01 11:49 45.45862 9.27983 363 ft 5 kts 171°
2026-05-01 11:50 45.45830 9.27987 360 ft 4 kts 181°
2026-05-01 11:50 45.45779 9.27985 365 ft 7 kts 181°
2026-05-01 11:50 45.45734 9.27984 361 ft 6 kts 181°
2026-05-01 11:50 45.45700 9.27983 361 ft 4 kts 181°
2026-05-01 11:51 45.45674 9.27982 361 ft 3 kts 181°
2026-05-01 11:51 45.45656 9.27981 361 ft 3 kts 181°
2026-05-01 11:51 45.45594 9.27979 361 ft 23 kts 182°
2026-05-01 11:51 45.45412 9.27976 360 ft 27 kts 182°
2026-05-01 11:52 45.45236 9.27881 360 ft 28 kts 199°
2026-05-01 11:52 45.45042 9.27887 361 ft 29 kts 175°
2026-05-01 11:52 45.44843 9.27938 362 ft 30 kts 169°
2026-05-01 11:52 45.44636 9.27963 359 ft 30 kts 175°
2026-05-01 11:53 45.44423 9.27991 359 ft 31 kts 174°
2026-05-01 11:53 45.44205 9.28010 356 ft 32 kts 177°
2026-05-01 11:53 45.43983 9.28036 351 ft 32 kts 175°
2026-05-01 11:53 45.43758 9.28066 354 ft 33 kts 176°
2026-05-01 11:54 45.43535 9.28086 357 ft 29 kts 178°
2026-05-01 11:54 45.43452 9.27997 351 ft 0 kts 265°
2026-05-01 11:55 45.43452 9.27996 351 ft 2 kts 265°
2026-05-01 11:55 45.43447 9.27885 348 ft 13 kts 282°
2026-05-01 11:55 45.43516 9.27823 352 ft 15 kts 345°
2026-05-01 11:55 45.43851 9.27786 355 ft 88 kts 354°
2026-05-01 11:56 45.44696 9.27693 359 ft 152 kts 355°
2026-05-01 11:56 45.45848 9.27571 762 ft 172 kts 359°
2026-05-01 11:56 45.47049 9.27462 1620 ft 173 kts 355°
2026-05-01 11:56 45.48311 9.27296 2278 ft 193 kts 357°
2026-05-01 11:57 45.49670 9.27674 2757 ft 211 kts 36°
2026-05-01 11:57 45.50332 9.28699 3211 ft 215 kts 65°
2026-05-01 11:57 45.50452 9.31537 3927 ft 220 kts 103°
2026-05-01 11:57 45.50032 9.33622 3990 ft 217 kts 109°
2026-05-01 11:58 45.49516 9.35683 4324 ft 224 kts 109°
2026-05-01 11:58 45.48989 9.37731 5316 ft 222 kts 111°
2026-05-01 11:58 45.46734 9.40788 6741 ft 249 kts 158°
2026-05-01 11:59 45.45024 9.41668 7230 ft 269 kts 159°
2026-05-01 11:59 45.43234 9.42602 8020 ft 276 kts 158°
2026-05-01 11:59 45.41413 9.43563 8910 ft 281 kts 158°
2026-05-01 12:00 45.37689 9.45551 10368 ft 290 kts 156°
2026-05-01 12:00 45.35812 9.46561 10871 ft 293 kts 156°
2026-05-01 12:00 45.31951 9.48639 11840 ft 300 kts 156°
2026-05-01 12:01 45.29985 9.49693 12348 ft 303 kts 156°
2026-05-01 12:01 45.27997 9.50756 12833 ft 306 kts 156°
2026-05-01 12:01 45.26669 9.51464 13157 ft 308 kts 156°
2026-05-01 12:01 45.23984 9.52897 13793 ft 313 kts 156°
2026-05-01 12:02 45.21941 9.53991 14235 ft 316 kts 156°
2026-05-01 12:02 45.19856 9.55117 14458 ft 326 kts 155°
2026-05-01 12:02 45.18406 9.55917 14552 ft 338 kts 155°
2026-05-01 12:02 45.16179 9.57162 14730 ft 358 kts 155°
2026-05-01 12:03 45.13823 9.58480 15229 ft 367 kts 155°
2026-05-01 12:03 45.11434 9.59810 15863 ft 371 kts 155°
2026-05-01 12:03 45.09014 9.61150 16508 ft 375 kts 155°
2026-05-01 12:03 45.06591 9.62562 17145 ft 378 kts 153°
2026-05-01 12:04 45.04183 9.64094 17795 ft 381 kts 151°
2026-05-01 12:04 45.01771 9.65701 18441 ft 384 kts 150°
2026-05-01 12:04 44.99342 9.67343 19027 ft 388 kts 150°
2026-05-01 12:04 44.96926 9.68973 19538 ft 392 kts 151°
2026-05-01 12:05 44.94449 9.70626 20073 ft 396 kts 151°
2026-05-01 12:05 44.89387 9.73941 21142 ft 404 kts 152°
2026-05-01 12:05 44.86813 9.75606 21679 ft 409 kts 152°
2026-05-01 12:06 44.84212 9.77285 22208 ft 413 kts 152°
2026-05-01 12:06 44.81583 9.78988 22722 ft 417 kts 152°
2026-05-01 12:06 44.78933 9.80708 23239 ft 421 kts 152°
2026-05-01 12:06 44.76258 9.82446 23740 ft 425 kts 152°
2026-05-01 12:07 44.73598 9.84174 24178 ft 428 kts 152°
2026-05-01 12:07 44.70882 9.85954 24591 ft 430 kts 149°
2026-05-01 12:07 44.68319 9.88129 24989 ft 429 kts 140°
2026-05-01 12:07 44.66043 9.90833 25378 ft 428 kts 130°
2026-05-01 12:08 44.63972 9.93843 25770 ft 430 kts 129°
2026-05-01 12:08 44.61887 9.96873 26173 ft 432 kts 129°
2026-05-01 12:08 44.59787 9.99907 26556 ft 435 kts 130°
2026-05-01 12:08 44.57666 10.02961 26932 ft 437 kts 129°
2026-05-01 12:09 44.55537 10.06023 27307 ft 439 kts 129°
2026-05-01 12:09 44.53423 10.09061 27678 ft 442 kts 129°
2026-05-01 12:09 44.51269 10.12147 28043 ft 445 kts 131°
2026-05-01 12:09 44.48895 10.14979 28377 ft 453 kts 140°
2026-05-01 12:10 44.46174 10.17293 28721 ft 461 kts 150°
2026-05-01 12:10 44.40145 10.20640 29379 ft 469 kts 155°
2026-05-01 12:10 44.37081 10.22260 29684 ft 471 kts 155°
2026-05-01 12:11 44.30951 10.25499 30282 ft 476 kts 155°
2026-05-01 12:11 44.27844 10.27140 30545 ft 479 kts 155°
2026-05-01 12:11 44.24713 10.28792 30793 ft 481 kts 155°
2026-05-01 12:12 44.21570 10.30448 31009 ft 482 kts 155°
2026-05-01 12:12 44.18416 10.32110 31244 ft 484 kts 155°
2026-05-01 12:12 44.15292 10.33755 31476 ft 486 kts 155°
2026-05-01 12:12 44.12122 10.35416 31765 ft 486 kts 155°
2026-05-01 12:13 44.08957 10.37070 32097 ft 485 kts 155°
2026-05-01 12:13 44.05802 10.38715 32424 ft 484 kts 155°
2026-05-01 12:13 44.02652 10.40356 32748 ft 483 kts 155°
2026-05-01 12:13 43.99499 10.41999 33043 ft 483 kts 155°
2026-05-01 12:14 43.96344 10.43646 33272 ft 483 kts 155°
2026-05-01 12:14 43.93225 10.45273 33306 ft 475 kts 155°
2026-05-01 12:14 43.87078 10.48475 33306 ft 470 kts 155°
2026-05-01 12:15 43.80998 10.51656 33303 ft 470 kts 155°
2026-05-01 12:15 43.74859 10.54805 33302 ft 471 kts 156°
2026-05-01 12:16 43.68625 10.57748 33303 ft 473 kts 158°
2026-05-01 12:16 43.62368 10.60581 33300 ft 475 kts 158°
2026-05-01 12:17 43.56057 10.63469 33301 ft 479 kts 158°
2026-05-01 12:17 43.49742 10.66383 33305 ft 477 kts 158°
2026-05-01 12:18 43.43445 10.69303 33304 ft 477 kts 158°
2026-05-01 12:18 43.37171 10.72210 33301 ft 478 kts 158°
2026-05-01 12:19 43.30852 10.75108 33299 ft 479 kts 158°
2026-05-01 12:19 43.24517 10.78009 33283 ft 480 kts 158°
2026-05-01 12:20 43.18166 10.80913 33277 ft 481 kts 158°
2026-05-01 12:20 43.11806 10.83822 33269 ft 482 kts 158°
2026-05-01 12:21 43.05436 10.86726 33266 ft 483 kts 158°
2026-05-01 12:21 42.99081 10.89609 33260 ft 484 kts 158°
2026-05-01 12:22 42.92672 10.92516 33252 ft 486 kts 159°
2026-05-01 12:22 42.86161 10.95479 33274 ft 498 kts 157°
2026-05-01 12:23 42.83014 10.97442 33277 ft 496 kts 146°
2026-05-01 12:23 42.80171 11.00070 33276 ft 492 kts 136°
2026-05-01 12:23 42.75687 11.06869 33075 ft 471 kts 117°
2026-05-01 12:24 42.73915 11.10596 32529 ft 465 kts 116°
2026-05-01 12:24 42.72191 11.14239 32046 ft 459 kts 116°
2026-05-01 12:24 42.70473 11.17878 31568 ft 453 kts 115°
2026-05-01 12:24 42.68777 11.21472 31092 ft 448 kts 115°
2026-05-01 12:25 42.67097 11.25021 30625 ft 443 kts 114°
2026-05-01 12:25 42.63790 11.31995 29612 ft 434 kts 114°
2026-05-01 12:25 42.62179 11.35385 29084 ft 430 kts 114°
2026-05-01 12:26 42.60562 11.38779 28563 ft 425 kts 114°
2026-05-01 12:26 42.57370 11.45453 27559 ft 416 kts 114°
2026-05-01 12:26 42.55600 11.48605 27074 ft 423 kts 124°
2026-05-01 12:27 42.53375 11.51285 26604 ft 432 kts 136°
2026-05-01 12:27 42.47896 11.54764 25673 ft 442 kts 155°
2026-05-01 12:28 42.42169 11.57505 25060 ft 422 kts 148°
2026-05-01 12:28 42.39673 11.59404 24918 ft 399 kts 135°
2026-05-01 12:28 42.35705 11.64215 24208 ft 380 kts 126°
2026-05-01 12:29 42.33800 11.66670 23823 ft 377 kts 126°
2026-05-01 12:29 42.31905 11.69104 23370 ft 374 kts 127°
2026-05-01 12:29 42.28141 11.73912 22481 ft 370 kts 127°
2026-05-01 12:30 42.24396 11.78701 21433 ft 371 kts 128°
2026-05-01 12:30 42.22518 11.81102 20926 ft 372 kts 128°
2026-05-01 12:30 42.20638 11.83496 20424 ft 372 kts 129°
2026-05-01 12:31 42.18750 11.85891 19929 ft 372 kts 129°
2026-05-01 12:31 42.16864 11.88285 19440 ft 372 kts 129°
2026-05-01 12:31 42.15002 11.90651 19004 ft 372 kts 129°
2026-05-01 12:31 42.13322 11.93257 18536 ft 363 kts 117°
2026-05-01 12:32 42.12113 11.96193 17999 ft 356 kts 108°
2026-05-01 12:32 42.09992 12.02233 16955 ft 357 kts 109°
2026-05-01 12:32 42.08921 12.05255 16443 ft 356 kts 110°
2026-05-01 12:33 42.07864 12.08227 15948 ft 357 kts 110°
2026-05-01 12:33 42.06793 12.11236 15452 ft 356 kts 110°
2026-05-01 12:33 42.05724 12.14245 14967 ft 356 kts 110°
2026-05-01 12:33 42.04660 12.17236 14575 ft 352 kts 110°
2026-05-01 12:34 42.03604 12.20196 14215 ft 348 kts 111°
2026-05-01 12:34 42.02562 12.23115 13814 ft 344 kts 111°
2026-05-01 12:34 42.01530 12.25998 13412 ft 339 kts 111°
2026-05-01 12:34 42.00510 12.28844 13009 ft 335 kts 111°
2026-05-01 12:35 41.99472 12.31603 12612 ft 334 kts 118°
2026-05-01 12:35 41.97925 12.33958 12112 ft 338 kts 138°
2026-05-01 12:35 41.95851 12.35475 11730 ft 340 kts 158°
2026-05-01 12:35 41.93638 12.36403 11344 ft 325 kts 160°
2026-05-01 12:36 41.91520 12.37274 10978 ft 311 kts 160°
2026-05-01 12:36 41.89514 12.38097 10616 ft 299 kts 160°
2026-05-01 12:36 41.87560 12.38899 10254 ft 289 kts 160°
2026-05-01 12:36 41.85670 12.39679 9867 ft 279 kts 160°
2026-05-01 12:37 41.83841 12.40441 9447 ft 274 kts 159°
2026-05-01 12:37 41.82016 12.41209 9057 ft 275 kts 160°
2026-05-01 12:37 41.80187 12.41975 8648 ft 275 kts 160°
2026-05-01 12:37 41.78367 12.42737 8269 ft 274 kts 160°
2026-05-01 12:38 41.76543 12.43501 7896 ft 273 kts 160°
2026-05-01 12:38 41.74725 12.44263 7520 ft 275 kts 160°
2026-05-01 12:38 41.72923 12.45016 7143 ft 274 kts 160°
2026-05-01 12:38 41.71110 12.45770 6804 ft 272 kts 160°
2026-05-01 12:39 41.69308 12.46517 6486 ft 269 kts 161°
2026-05-01 12:39 41.67529 12.47254 6146 ft 266 kts 161°
2026-05-01 12:39 41.65768 12.47984 5811 ft 263 kts 161°
2026-05-01 12:39 41.64028 12.48702 5456 ft 259 kts 161°
2026-05-01 12:40 41.62348 12.49394 5138 ft 247 kts 161°
2026-05-01 12:40 41.60726 12.49972 4805 ft 236 kts 174°
2026-05-01 12:40 41.59144 12.49601 4472 ft 232 kts 209°
2026-05-01 12:40 41.58026 12.48152 4419 ft 229 kts 243°
2026-05-01 12:41 41.57434 12.46235 4417 ft 220 kts 252°
2026-05-01 12:41 41.56985 12.44344 4405 ft 209 kts 259°
2026-05-01 12:41 41.56884 12.42443 4394 ft 203 kts 287°
2026-05-01 12:41 41.57546 12.40830 4391 ft 199 kts 314°
2026-05-01 12:42 41.58650 12.39795 4395 ft 194 kts 343°
2026-05-01 12:42 41.59929 12.39206 4376 ft 196 kts 332°
2026-05-01 12:42 41.60898 12.37913 4205 ft 199 kts 312°
2026-05-01 12:42 41.61815 12.36544 3940 ft 197 kts 317°
2026-05-01 12:43 41.62899 12.35460 3685 ft 193 kts 335°
2026-05-01 12:43 41.64124 12.34756 3539 ft 191 kts 342°
2026-05-01 12:43 41.65379 12.34184 3533 ft 186 kts 344°
2026-05-01 12:43 41.66560 12.33679 3268 ft 183 kts 344°
2026-05-01 12:44 41.67795 12.33163 2843 ft 187 kts 344°
2026-05-01 12:44 41.69034 12.32647 2528 ft 185 kts 344°
2026-05-01 12:44 41.71422 12.31651 2054 ft 174 kts 343°
2026-05-01 12:45 41.73315 12.30862 1646 ft 160 kts 344°
2026-05-01 12:45 41.74359 12.30427 1443 ft 151 kts 345°
2026-05-01 12:45 41.75335 12.30019 1256 ft 144 kts 345°
2026-05-01 12:46 41.76274 12.29628 1057 ft 140 kts 345°
2026-05-01 12:46 41.77183 12.29249 887 ft 138 kts 344°
2026-05-01 12:46 41.78094 12.28869 695 ft 136 kts 345°
2026-05-01 12:46 41.78997 12.28492 522 ft 135 kts 345°
2026-05-01 12:47 41.79900 12.28115 341 ft 137 kts 345°
2026-05-01 12:47 41.80806 12.27736 167 ft 135 kts 346°
2026-05-01 12:47 41.81693 12.27363 27 ft 128 kts 345°
2026-05-01 12:47 41.82421 12.27058 16 ft 86 kts 340°
2026-05-01 12:48 41.82633 12.26856 20 ft 13 kts 298°
2026-05-01 12:48 41.82696 12.26723 20 ft 13 kts 250°
2026-05-01 12:48 41.82549 12.26630 20 ft 28 kts 185°
2026-05-01 12:48 41.82242 12.26710 18 ft 63 kts 147°
2026-05-01 12:49 41.81918 12.26935 16 ft 42 kts 158°
2026-05-01 12:49 41.81747 12.27016 18 ft 21 kts 161°
2026-05-01 12:49 41.81617 12.27070 20 ft 18 kts 165°
2026-05-01 12:49 41.81501 12.27109 23 ft 16 kts 165°
2026-05-01 12:50 41.81400 12.27149 22 ft 15 kts 163°
2026-05-01 12:50 41.81295 12.27195 17 ft 16 kts 161°
2026-05-01 12:50 41.81188 12.27244 16 ft 16 kts 161°
2026-05-01 12:50 41.81087 12.27290 15 ft 15 kts 161°
2026-05-01 12:51 41.80986 12.27334 14 ft 16 kts 162°
2026-05-01 12:51 41.80883 12.27342 15 ft 14 kts 186°
2026-05-01 12:51 41.80698 12.27290 15 ft 12 kts 205°
2026-05-01 12:52 41.80653 12.27209 16 ft 11 kts 243°
2026-05-01 12:52 41.80595 12.27002 14 ft 12 kts 251°
2026-05-01 12:52 41.80570 12.26909 16 ft 10 kts 250°
2026-05-01 12:53 41.80525 12.26747 15 ft 9 kts 249°
2026-05-01 12:53 41.80501 12.26664 17 ft 10 kts 249°
2026-05-01 12:53 41.80460 12.26522 15 ft 18 kts 248°
2026-05-01 12:54 41.80403 12.26382 14 ft 16 kts 218°
2026-05-01 12:54 41.80233 12.26406 17 ft 10 kts 183°
2026-05-01 12:54 41.80172 12.26381 17 ft 8 kts 201°
2026-05-01 12:55 41.80071 12.26312 20 ft 7 kts 208°
2026-05-01 12:55 41.80028 12.26285 19 ft 8 kts 205°
2026-05-01 12:55 41.79958 12.26244 20 ft 20 kts 203°
2026-05-01 12:56 41.79824 12.26167 18 ft 21 kts 203°
2026-05-01 12:56 41.79784 12.26045 19 ft 15 kts 295°
2026-05-01 12:56 41.79827 12.25915 19 ft 16 kts 292°
2026-05-01 12:56 41.79871 12.25774 17 ft 17 kts 293°
2026-05-01 12:57 41.79913 12.25644 19 ft 13 kts 294°
2026-05-01 12:57 41.79918 12.25524 18 ft 2 kts 215°
2026-05-01 12:57 41.79892 12.25503 16 ft 6 kts 205°
2026-05-01 12:58 41.79857 12.25481 17 ft 5 kts 205°
2026-05-01 12:58 41.79827 12.25472 16 ft 5 kts 168°
2026-05-01 12:58 41.79807 12.25493 16 ft 0 kts 133°
2026-05-01 12:59 41.79804 12.25501 16 ft 2 kts 122°
2026-05-01 12:59 41.79792 12.25529 18 ft 1 kts 119°
2026-05-01 13:00 41.79791 12.25533 18 ft 0 kts 118°